Location: Ammerl�gen
(47.2167°N, 9.6000°E)
Time: 04:38:30
(UTC+00:00)

Cosmos 1763 Rocket - Pass Details

Date: 21 April 2021
Orbit: 733 x 779 km, 74.0° (Epoch: 16 May)

Event Time Altitude Azimuth Distance (km) Brightness Sun altitude
Rises 21:36:32 0° 332° (NNW) 3,175 8.0 -26.3°
Reaches altitude 10° 21:38:58 10° 327° (NNW) 2,246 6.9 -26.5°
Maximum altitude 21:43:47 45° 255° (WSW) 993 4.1 -26.8°
Enters shadow 21:43:56 45° 250° (WSW) 995 4.0 -26.8°
